Location: Poughquag
(41.6090°N, 73.6820°W)
Time: 11:44:17
(UTC-04:00)

A-11 Canister half - Pass Details

Date: 29 May 2020
Orbit: 1527 x 1682 km, 47.3° (Epoch: 06 July)

Event Time Altitude Azimuth Distance (km) Brightness Sun altitude
Rises 11:15:28 0° 275° (W) 4,687 11.3 61.6°
Reaches altitude 10° 11:18:34 10° 279° (W) 3,715 10.9 62.0°
Maximum altitude 11:27:52 62° 359° (N) 1,729 10.0 63.4°
Drops below altitude 10° 11:37:29 10° 80° (E) 3,824 11.4 64.7°
Sets 11:40:42 0° 84° (E) 4,831 11.8 65.1°
